Time,TemperatureF,DewpointF,PressureIn,WindDirection,WindDirectionDegrees,WindSpeedMPH,WindSpeedGustMPH,Humidity,HourlyPrecipIn,Conditions,Clouds,dailyrainin,SoftwareType,DateUTC
2013-06-26 00:07:00,61.8,62.0,29.97,West,268,0.0,0.0,100,0.01,,,0.00,weatherlink.com 1.10,2013-06-26 07:07:00,
2013-06-26 00:22:00,61.7,62.0,29.97,WNW,285,0.0,0.0,100,0.01,,,0.00,weatherlink.com 1.10,2013-06-26 07:22:00,
2013-06-26 00:37:00,61.4,61.0,29.97,West,276,0.0,0.0,100,0.01,,,0.00,weatherlink.com 1.10,2013-06-26 07:37:00,
2013-06-26 00:52:00,61.5,62.0,29.97,West,275,0.0,0.0,100,0.01,,,0.01,weatherlink.com 1.10,2013-06-26 07:52:00,
2013-06-26 01:07:00,61.4,61.0,29.96,NNW,342,0.0,0.0,100,0.01,,,0.01,weatherlink.com 1.10,2013-06-26 08:07:00,
2013-06-26 01:22:00,61.3,61.0,29.96,NNW,340,0.0,0.0,100,0.02,,,0.02,weatherlink.com 1.10,2013-06-26 08:22:00,
2013-06-26 01:37:00,61.2,61.0,29.96,NNE,23,0.0,0.0,100,0.02,,,0.02,weatherlink.com 1.10,2013-06-26 08:37:00,
2013-06-26 01:52:00,61.3,61.0,29.96,NNE,22,0.0,0.0,100,0.01,,,0.02,weatherlink.com 1.10,2013-06-26 08:52:00,
2013-06-26 02:07:00,61.4,61.0,29.96,NNW,338,0.0,0.0,100,0.01,,,0.02,weatherlink.com 1.10,2013-06-26 09:07:00,
2013-06-26 02:22:00,61.4,61.0,29.96,NW,322,0.0,0.0,100,0.00,,,0.02,weatherlink.com 1.10,2013-06-26 09:22:00,
2013-06-26 02:37:00,61.5,62.0,29.97,NW,321,0.0,0.0,100,0.01,,,0.03,weatherlink.com 1.10,2013-06-26 09:37:00,
2013-06-26 02:52:00,61.5,62.0,29.97,NNW,335,0.0,0.0,100,0.01,,,0.03,weatherlink.com 1.10,2013-06-26 09:52:00,
2013-06-26 03:07:00,61.5,62.0,29.96,NNW,335,0.0,0.0,100,0.01,,,0.03,weatherlink.com 1.10,2013-06-26 10:07:00,
2013-06-26 03:22:00,61.6,62.0,29.96,NNW,334,0.0,0.0,100,0.01,,,0.03,weatherlink.com 1.10,2013-06-26 10:22:00,
2013-06-26 03:37:00,61.7,62.0,29.97,North,356,0.0,0.0,100,0.00,,,0.03,weatherlink.com 1.10,2013-06-26 10:37:00,
2013-06-26 03:52:00,61.9,62.0,29.97,North,354,0.0,0.0,100,0.00,,,0.03,weatherlink.com 1.10,2013-06-26 10:52:00,
2013-06-26 04:07:00,61.9,62.0,29.97,NW,323,0.0,0.0,100,0.00,,,0.03,weatherlink.com 1.10,2013-06-26 11:07:00,
2013-06-26 04:22:00,62.0,62.0,29.98,NW,322,0.0,0.0,100,0.00,,,0.03,weatherlink.com 1.10,2013-06-26 11:22:00,
2013-06-26 04:37:00,61.9,62.0,29.98,NW,322,0.0,0.0,100,0.00,,,0.03,weatherlink.com 1.10,2013-06-26 11:37:00,
2013-06-26 04:53:00,61.9,62.0,29.98,NW,322,0.0,0.0,100,0.00,,,0.03,weatherlink.com 1.10,2013-06-26 11:53:00,
2013-06-26 05:08:00,62.0,62.0,29.98,NW,320,0.0,0.0,100,0.00,,,0.03,weatherlink.com 1.10,2013-06-26 12:08:00,
2013-06-26 05:23:00,62.0,62.0,29.98,NW,321,0.0,0.0,100,0.01,,,0.04,weatherlink.com 1.10,2013-06-26 12:23:00,
2013-06-26 05:38:00,61.9,62.0,29.99,NW,320,0.0,0.0,100,0.01,,,0.04,weatherlink.com 1.10,2013-06-26 12:38:00,
2013-06-26 05:53:00,61.9,62.0,29.99,NW,320,0.0,0.0,100,0.01,,,0.04,weatherlink.com 1.10,2013-06-26 12:53:00,
2013-06-26 06:08:00,62.0,62.0,29.99,NW,321,0.0,0.0,100,0.01,,,0.04,weatherlink.com 1.10,2013-06-26 13:08:00,
2013-06-26 06:23:00,62.0,62.0,30.00,NW,321,0.0,0.0,100,0.01,,,0.05,weatherlink.com 1.10,2013-06-26 13:23:00,
2013-06-26 06:38:00,62.1,62.0,30.00,NW,316,0.0,0.0,100,0.01,,,0.05,weatherlink.com 1.10,2013-06-26 13:38:00,
2013-06-26 06:53:00,62.1,62.0,30.00,NW,307,0.0,0.0,100,0.01,,,0.05,weatherlink.com 1.10,2013-06-26 13:53:00,
2013-06-26 07:08:00,62.4,62.0,30.01,NW,316,0.0,0.0,100,0.01,,,0.05,weatherlink.com 1.10,2013-06-26 14:08:00,
2013-06-26 07:23:00,62.6,63.0,30.01,NW,316,0.0,0.0,100,0.00,,,0.05,weatherlink.com 1.10,2013-06-26 14:23:00,
2013-06-26 07:38:00,62.9,63.0,30.02,NW,316,0.0,0.0,100,0.00,,,0.05,weatherlink.com 1.10,2013-06-26 14:38:00,
2013-06-26 07:53:00,63.1,63.0,30.02,NW,316,0.0,0.0,100,0.00,,,0.05,weatherlink.com 1.10,2013-06-26 14:53:00,
2013-06-26 08:08:00,63.3,63.0,30.02,SW,223,0.0,0.0,100,0.00,,,0.05,weatherlink.com 1.10,2013-06-26 15:08:00,
2013-06-26 08:23:00,63.9,64.0,30.02,WSW,238,0.0,0.0,100,0.00,,,0.05,weatherlink.com 1.10,2013-06-26 15:23:00,
2013-06-26 08:38:00,64.0,64.0,30.02,WSW,245,3.0,3.0,100,0.00,,,0.05,weatherlink.com 1.10,2013-06-26 15:38:00,
2013-06-26 08:53:00,64.9,65.0,30.03,SW,231,0.0,3.0,100,0.00,,,0.05,weatherlink.com 1.10,2013-06-26 15:53:00,
2013-06-26 09:08:00,64.5,65.0,30.03,SW,232,2.0,5.0,100,0.00,,,0.05,weatherlink.com 1.10,2013-06-26 16:08:00,
2013-06-26 09:23:00,64.8,65.0,30.04,SW,225,0.0,3.0,100,0.00,,,0.05,weatherlink.com 1.10,2013-06-26 16:23:00,
2013-06-26 09:38:00,65.1,65.0,30.04,West,259,2.0,2.0,100,0.00,,,0.05,weatherlink.com 1.10,2013-06-26 16:38:00,
2013-06-26 09:53:00,65.9,66.0,30.04,SW,225,2.0,5.0,99,0.00,,,0.05,weatherlink.com 1.10,2013-06-26 16:53:00,
2013-06-26 10:08:00,67.5,67.0,30.03,South,185,4.0,4.0,98,0.00,,,0.05,weatherlink.com 1.10,2013-06-26 17:08:00,
2013-06-26 10:23:00,68.5,67.0,30.04,SW,217,0.0,4.0,93,0.00,,,0.05,weatherlink.com 1.10,2013-06-26 17:23:00,
2013-06-26 10:38:00,69.1,66.0,30.04,SW,235,0.0,2.0,91,0.00,,,0.05,weatherlink.com 1.10,2013-06-26 17:38:00,
2013-06-26 10:53:00,69.1,66.0,30.04,WNW,301,0.0,0.0,91,0.00,,,0.05,weatherlink.com 1.10,2013-06-26 17:53:00,
2013-06-26 11:08:00,69.4,66.0,30.04,SSE,167,0.0,0.0,90,0.00,,,0.05,weatherlink.com 1.10,2013-06-26 18:08:00,
2013-06-26 11:24:00,69.7,66.0,30.04,South,186,0.0,3.0,89,0.00,,,0.05,weatherlink.com 1.10,2013-06-26 18:24:00,
2013-06-26 11:39:00,70.5,67.0,30.05,SW,228,0.0,2.0,87,0.00,,,0.05,weatherlink.com 1.10,2013-06-26 18:39:00,
2013-06-26 11:54:00,71.1,67.0,30.05,WNW,284,1.0,3.0,88,0.00,,,0.05,weatherlink.com 1.10,2013-06-26 18:54:00,
2013-06-26 12:09:00,71.2,68.0,30.05,West,259,0.0,7.0,88,0.00,,,0.05,weatherlink.com 1.10,2013-06-26 19:09:00,
2013-06-26 12:24:00,72.7,68.0,30.05,West,269,2.0,5.0,84,0.00,,,0.05,weatherlink.com 1.10,2013-06-26 19:24:00,
2013-06-26 12:39:00,74.3,67.0,30.05,West,265,0.0,5.0,79,0.00,,,0.05,weatherlink.com 1.10,2013-06-26 19:39:00,
2013-06-26 12:54:00,74.7,67.0,30.05,SSW,195,1.0,4.0,77,0.00,,,0.05,weatherlink.com 1.10,2013-06-26 19:54:00,
2013-06-26 13:09:00,75.5,67.0,30.04,SW,233,3.0,6.0,76,0.00,,,0.05,weatherlink.com 1.10,2013-06-26 20:09:00,
2013-06-26 13:24:00,76.5,66.0,30.04,SW,219,2.0,6.0,69,0.00,,,0.05,weatherlink.com 1.10,2013-06-26 20:24:00,
2013-06-26 13:39:00,77.5,67.0,30.04,WSW,257,3.0,8.0,71,0.00,,,0.05,weatherlink.com 1.10,2013-06-26 20:39:00,
2013-06-26 13:54:00,77.8,67.0,30.04,WNW,287,2.0,7.0,70,0.00,,,0.05,weatherlink.com 1.10,2013-06-26 20:54:00,
2013-06-26 14:09:00,77.6,66.0,30.03,WNW,291,3.0,7.0,67,0.00,,,0.05,weatherlink.com 1.10,2013-06-26 21:09:00,
2013-06-26 14:24:00,78.6,65.0,30.03,SW,217,5.0,8.0,64,0.00,,,0.05,weatherlink.com 1.10,2013-06-26 21:24:00,
2013-06-26 14:39:00,79.0,66.0,30.03,WNW,296,3.0,6.0,65,0.00,,,0.05,weatherlink.com 1.10,2013-06-26 21:39:00,
2013-06-26 14:54:00,78.8,66.0,30.03,WNW,297,3.0,6.0,64,0.00,,,0.05,weatherlink.com 1.10,2013-06-26 21:54:00,
2013-06-26 15:09:00,79.4,66.0,30.03,WSW,238,3.0,7.0,64,0.00,,,0.05,weatherlink.com 1.10,2013-06-26 22:09:00,
2013-06-26 15:24:00,78.7,65.0,30.02,WNW,282,4.0,11.0,63,0.00,,,0.05,weatherlink.com 1.10,2013-06-26 22:24:00,
2013-06-26 15:39:00,79.7,66.0,30.02,West,281,1.0,8.0,63,0.00,,,0.05,weatherlink.com 1.10,2013-06-26 22:39:00,
2013-06-26 15:54:00,79.5,66.0,30.01,WSW,242,5.0,8.0,64,0.00,,,0.05,weatherlink.com 1.10,2013-06-26 22:54:00,
2013-06-26 16:09:00,79.9,66.0,30.01,WSW,238,1.0,7.0,63,0.00,,,0.05,weatherlink.com 1.10,2013-06-26 23:09:00,
2013-06-26 16:24:00,80.0,65.0,30.00,North,351,1.0,6.0,61,0.00,,,0.05,weatherlink.com 1.10,2013-06-26 23:24:00,
2013-06-26 16:39:00,80.2,64.0,30.00,West,260,2.0,6.0,58,0.00,,,0.05,weatherlink.com 1.10,2013-06-26 23:39:00,
2013-06-26 16:54:00,80.0,65.0,30.00,West,278,3.0,5.0,60,0.00,,,0.05,weatherlink.com 1.10,2013-06-26 23:54:00,
2013-06-26 17:09:00,80.4,64.0,30.00,SW,225,4.0,6.0,57,0.00,,,0.05,weatherlink.com 1.10,2013-06-27 00:09:00,
2013-06-26 17:24:00,79.7,64.0,30.00,WNW,282,2.0,7.0,60,0.00,,,0.05,weatherlink.com 1.10,2013-06-27 00:24:00,
2013-06-26 17:39:00,79.8,65.0,29.99,SW,230,5.0,6.0,60,0.00,,,0.05,weatherlink.com 1.10,2013-06-27 00:39:00,
2013-06-26 17:55:00,80.2,66.0,29.99,West,259,5.0,7.0,62,0.00,,,0.05,weatherlink.com 1.10,2013-06-27 00:55:00,
2013-06-26 18:10:00,79.8,66.0,29.98,WNW,290,1.0,7.0,63,0.00,,,0.05,weatherlink.com 1.10,2013-06-27 01:10:00,
2013-06-26 18:25:00,78.8,65.0,29.98,SE,143,1.0,8.0,63,0.00,,,0.05,weatherlink.com 1.10,2013-06-27 01:25:00,
2013-06-26 18:40:00,78.1,65.0,29.98,SW,217,8.0,8.0,65,0.00,,,0.05,weatherlink.com 1.10,2013-06-27 01:40:00,
2013-06-26 18:55:00,77.3,65.0,29.98,SW,217,10.0,10.0,66,0.00,,,0.05,weatherlink.com 1.10,2013-06-27 01:55:00,
2013-06-26 19:10:00,76.5,65.0,29.98,SSW,195,2.0,8.0,68,0.00,,,0.05,weatherlink.com 1.10,2013-06-27 02:10:00,
2013-06-26 19:25:00,75.9,65.0,29.98,SSW,203,5.0,9.0,68,0.00,,,0.05,weatherlink.com 1.10,2013-06-27 02:25:00,
2013-06-26 19:40:00,74.5,64.0,29.99,SW,224,7.0,9.0,70,0.00,,,0.05,weatherlink.com 1.10,2013-06-27 02:40:00,
2013-06-26 19:55:00,73.4,64.0,29.99,SW,229,5.0,9.0,72,0.00,,,0.05,weatherlink.com 1.10,2013-06-27 02:55:00,
2013-06-26 20:10:00,72.3,64.0,29.99,South,176,5.0,9.0,74,0.00,,,0.05,weatherlink.com 1.10,2013-06-27 03:10:00,
2013-06-26 20:25:00,70.2,63.0,29.99,SSW,203,6.0,8.0,77,0.00,,,0.05,weatherlink.com 1.10,2013-06-27 03:25:00,
2013-06-26 20:40:00,68.8,62.0,29.99,SSW,198,8.0,10.0,80,0.00,,,0.05,weatherlink.com 1.10,2013-06-27 03:40:00,
2013-06-26 20:55:00,67.9,62.0,30.00,SSW,212,6.0,11.0,82,0.00,,,0.05,weatherlink.com 1.10,2013-06-27 03:55:00,
2013-06-26 21:10:00,67.2,62.0,30.00,SSW,197,2.0,6.0,83,0.00,,,0.05,weatherlink.com 1.10,2013-06-27 04:10:00,
2013-06-26 21:25:00,66.7,62.0,30.00,SSW,200,4.0,7.0,84,0.00,,,0.05,weatherlink.com 1.10,2013-06-27 04:25:00,
2013-06-26 21:40:00,66.1,62.0,30.01,SSW,205,6.0,8.0,85,0.00,,,0.05,weatherlink.com 1.10,2013-06-27 04:40:00,
2013-06-26 21:55:00,65.5,61.0,30.01,WSW,238,3.0,5.0,86,0.00,,,0.05,weatherlink.com 1.10,2013-06-27 04:55:00,
2013-06-26 22:10:00,65.2,61.0,30.02,SSW,210,1.0,7.0,87,0.00,,,0.05,weatherlink.com 1.10,2013-06-27 05:10:00,
2013-06-26 22:25:00,64.7,61.0,30.03,SW,226,3.0,8.0,88,0.00,,,0.05,weatherlink.com 1.10,2013-06-27 05:25:00,
2013-06-26 22:40:00,63.7,61.0,30.03,SW,217,5.0,8.0,90,0.00,,,0.05,weatherlink.com 1.10,2013-06-27 05:40:00,
2013-06-26 22:55:00,63.2,61.0,30.03,SSW,201,1.0,6.0,91,0.00,,,0.05,weatherlink.com 1.10,2013-06-27 05:55:00,
2013-06-26 23:10:00,62.8,61.0,30.03,SW,232,3.0,5.0,92,0.00,,,0.05,weatherlink.com 1.10,2013-06-27 06:10:00,
2013-06-26 23:25:00,62.5,61.0,30.03,SSW,211,3.0,5.0,93,0.00,,,0.05,weatherlink.com 1.10,2013-06-27 06:25:00,
2013-06-26 23:40:00,62.1,60.0,30.03,SSE,159,3.0,3.0,93,0.00,,,0.05,weatherlink.com 1.10,2013-06-27 06:40:00,
2013-06-26 23:55:00,61.7,60.0,30.04,SW,217,3.0,5.0,94,0.00,,,0.05,weatherlink.com 1.10,2013-06-27 06:55:00,